[[{"header":{"parameterUnit":"m.s-1","parameterCategory":1,"la1":30.2991,"la2":30.254,"lo1":-89.0895,"lo2":-89.0444,"dy":0.0017,"dx":0.0017,"nx":28,"ny":28,"refTime":"2026-01-29T03:00:00:Z","depth":0,"parameterNumber":2,"parameterNumberName":"U-component_of_WINDS"},"data":[0,0,0,0,0,0,0,0,0,0,0,0,0,0,0,0,0,0,0,0,0,0,0,0,0,0,0,0,0,0,0,0,0,0,0,0,0,0,0,0,0,0,0,0,0,0,0,0,0,0,0,0,0,0,0,0,0,0,2.0097,2.01,0,2.0455,2.046,2.0464,2.0519,2.0516,2.0513,2.051,2.0882,2.0895,2.0907,0,0,0,0,0,0,0,0,0,0,0,0,0,1.9465,1.9476,2.0096,2.0101,2.0105,2.0455,2.046,2.0465,2.052,2.0516,2.0512,2.0508,2.0878,2.0893,2.0909,0,0,0,0,0,0,0,0,0,0,0,0,0,1.9773,1.948,2.0096,2.0175,2.0186,2.0454,2.046,2.0466,2.0521,2.0516,2.0511,2.0507,2.0873,2.0892,2.0911,2.1126,0,0,2.097,2.0978,0,0,0,0,0,0,0,0,1.9756,1.9796,2.0159,2.017,2.0182,2.0438,2.0374,2.0688,2.0522,2.0394,2.051,2.0504,2.0738,2.0768,2.0847,2.1144,2.116,2.0971,2.0983,2.0992,2.0997,0,0,0,0,0,0,0,1.9734,1.9781,2.0239,2.0164,2.0178,2.0195,2.0233,2.0433,2.0589,2.0404,2.0409,2.0451,2.0744,2.0828,2.0856,2.1165,2.0971,2.0988,2.1,2.1008,2.1661,2.1666,0,0,0,0,0,0,1.9698,1.9763,2.0227,2.0249,1.9953,2.021,2.0253,2.0361,2.0587,2.0616,2.0454,2.0452,2.0797,2.0833,2.0869,2.1138,2.0991,2.101,2.1021,2.1655,2.1662,2.1668,0,0,0,0,0,0,1.9684,1.9739,2.0213,2.0008,2.0069,2.0226,2.0346,2.037,2.0454,2.0624,2.0653,2.0511,2.0795,2.0842,2.1062,2.1152,2.1018,2.1036,2.1648,2.1657,2.1665,2.1677,0,0,0,0,0,0,1.9666,1.9733,1.9815,2.0009,2.008,2.0398,2.0352,2.0381,2.0487,2.0487,2.0685,2.0713,2.0794,2.1033,2.1081,2.1176,2.1051,2.1641,2.1652,2.1662,2.1669,2.1685,2.1698,0,0,0,0,0,1.9643,1.9805,1.9819,1.9875,2.0185,2.0403,2.0444,2.0532,2.0493,2.0578,2.0688,2.0707,2.1134,2.1055,2.111,2.1212,2.1636,2.1649,2.1662,2.1663,2.1682,2.1698,0,0,0,0,0,0,1.9618,1.9831,1.985,2.0079,2.0222,2.0412,2.0521,2.0549,2.0708,2.0702,2.0807,2.0851,2.1067,2.1162,2.107,2.1434,2.1382,2.1407,2.1364,2.1384,2.1398,2.1371,2.1067,0,0,0,0,0,1.9639,1.9796,1.9975,2.016,2.0231,2.0364,2.0462,2.0518,2.0671,2.0733,2.0859,2.1009,2.1177,2.1286,2.145,2.1683,2.1729,2.1781,2.1795,2.1806,2.1827,2.196,2.1986,2.1711,2.1711,2.171,0,0,1.9685,1.9821,1.9914,2.0159,2.0276,2.0439,2.0414,2.0587,2.071,2.076,2.0976,2.1073,2.1248,2.1476,2.1584,2.1562,2.1913,2.1823,2.183,2.1845,2.1976,2.2002,2.2025,2.172,2.1718,2.1717,0,0,1.9851,1.9968,2.0136,2.0255,2.0434,2.0521,2.0561,2.0748,2.0815,2.1033,2.1074,2.1223,2.1509,2.1633,2.1733,2.1948,2.1972,2.1999,2.2075,2.2204,2.2225,2.2245,2.2324,2.235,2.2018,2.2018,2.2018,0,1.9885,2.013,2.022,2.0392,2.0499,2.0551,2.0723,2.0835,2.1058,2.1132,2.1105,2.1467,2.1588,2.1848,2.19,2.1979,2.203,2.1977,2.2214,2.2235,2.2255,2.2331,2.236,2.202,2.202,2.202,2.202,0,2.0165,2.0334,2.0449,2.0662,2.0783,2.0954,2.1072,2.1184,2.1229,2.1321,2.1544,2.1691,2.1887,2.1952,2.1999,2.222,2.2201,2.2193,2.2143,2.2282,2.2355,2.2385,2.2023,2.2023,2.2022,2.2022,0,0,2.0325,2.0586,2.0627,2.0726,2.0927,2.1061,2.1236,2.1426,2.1521,2.1674,2.1825,2.2067,2.2062,2.2175,2.2237,2.2349,2.2513,2.2328,2.2334,2.2359,2.2768,2.2774,2.2806,2.253,2.2536,2.2541,2.2754,0,2.0516,2.0827,2.0913,2.1178,2.1337,2.1389,2.1542,2.1684,2.1774,2.1924,2.2025,2.2195,2.2174,2.2243,2.2357,2.2469,2.2597,2.2455,2.2674,2.268,2.2629,2.2844,2.285,2.3044,2.2783,2.2788,2.2792,0,2.078,2.0937,2.1216,2.1399,2.1469,2.1605,2.1788,2.1929,2.2092,2.215,2.2278,2.233,2.2517,2.2456,2.2716,2.2618,2.2713,2.2781,2.2791,2.2816,2.2745,2.2876,2.3108,2.3137,2.2837,2.2834,2.283,0,2.087,2.1152,2.1356,2.1439,2.1657,2.1751,2.1847,2.2005,2.2114,2.2275,2.2348,2.2528,2.2627,2.2767,2.2867,2.2813,2.312,2.3067,2.3175,2.3173,2.3238,2.3233,2.349,2.3297,2.3297,2.3296,2.3295,0,2.1075,2.1244,2.14,2.1526,2.1718,2.1818,2.2006,2.2104,2.2244,2.2392,2.2449,2.2587,2.271,2.2865,2.2945,2.315,2.3194,2.3248,2.3267,2.3244,2.3237,2.3308,2.3297,2.3304,2.3302,2.3301,2.3299,0,2.1209,2.132,2.1546,2.1734,2.1786,2.1919,2.2082,2.2207,2.23,2.2486,2.2536,2.2682,2.2868,2.2981,2.3217,2.327,2.3497,2.3511,2.3441,2.3451,2.3553,2.3543,2.3866,2.3915,2.3688,2.369,2.3691,0,2.1332,2.1464,2.1666,2.1768,2.1865,2.2029,2.2141,2.2245,2.236,2.2556,2.2659,2.2848,2.3004,2.3299,2.3428,2.3609,2.3629,2.373,2.3656,2.3629,2.3632,2.3624,2.3638,2.3742,2.3744,2.3745,2.3747,0,2.1541,2.159,2.1748,2.1927,2.2059,2.2205,2.2351,2.2432,2.2561,2.2688,2.2878,2.2999,2.324,2.3428,2.3621,2.3722,2.3757,2.3769,2.3804,2.3781,2.3737,2.3764,2.3476,2.3761,2.3759,2.3758,2.3758,2.3757,2.1675,2.1795,2.1957,2.2132,2.2253,2.2388,2.2516,2.2624,2.2784,2.2987,2.3039,2.3239,2.3401,2.3664,2.3769,2.3928,2.3914,2.3964,2.3977,2.3988,2.3991,2.371,2.3964,2.3964,2.3963,2.3963,2.3963,0,2.1888,2.1995,2.2155,2.2357,2.2496,2.2515,2.2678,2.2794,2.2968,2.3116,2.3269,2.3488,2.3672,2.3815,2.4003,2.4104,2.4125,2.415,2.4144,2.4168,2.3993,2.3944,2.413,2.413,2.413,2.413,2.413,2.413,2.2015,2.222,2.2288,2.2555,2.2661,2.2856,2.2948,2.3074,2.3192,2.3434,2.3586,2.3678,2.3825,2.4025,2.4195,2.4233,2.43,2.4323,2.4364,2.4198,2.418,2.4162,2.4117,2.4336,2.4336,2.4526,2.4527,2.4529]},{"header":{"parameterUnit":"m.s-1","parameterCategory":1,"la1":30.2991,"la2":30.254,"lo1":-89.0895,"lo2":-89.0444,"dy":0.0017,"dx":0.0017,"nx":28,"ny":28,"refTime":"2026-01-29T03:00:00:Z","depth":0,"parameterNumber":3,"parameterNumberName":"V-component_of_WINDS"},"data":[0,0,0,0,0,0,0,0,0,0,0,0,0,0,0,0,0,0,0,0,0,0,0,0,0,0,0,0,0,0,0,0,0,0,0,0,0,0,0,0,0,0,0,0,0,0,0,0,0,0,0,0,0,0,0,0,0,0,-0.7941,-0.7941,0,-0.7973,-0.7973,-0.7974,-0.8003,-0.8003,-0.8003,-0.8004,-0.8034,-0.8035,-0.8035,0,0,0,0,0,0,0,0,0,0,0,0,0,-0.7903,-0.7903,-0.7941,-0.7941,-0.7942,-0.7973,-0.7973,-0.7974,-0.8003,-0.8003,-0.8004,-0.8004,-0.8034,-0.8035,-0.8035,0,0,0,0,0,0,0,0,0,0,0,0,0,-0.7926,-0.7904,-0.7941,-0.796,-0.7962,-0.7973,-0.7973,-0.7974,-0.8003,-0.8003,-0.8004,-0.8004,-0.8034,-0.8034,-0.8035,-0.8029,0,0,-0.8037,-0.8038,0,0,0,0,0,0,0,0,-0.7924,-0.7927,-0.7957,-0.7959,-0.7961,-0.7985,-0.7971,-0.7992,-0.8002,-0.7987,-0.8004,-0.8004,-0.8017,-0.8019,-0.8024,-0.803,-0.8032,-0.8037,-0.8038,-0.8038,-0.8038,0,0,0,0,0,0,0,-0.7923,-0.7926,-0.7954,-0.7957,-0.796,-0.7966,-0.797,-0.7975,-0.7999,-0.7988,-0.7991,-0.7994,-0.8018,-0.8023,-0.8025,-0.8032,-0.8037,-0.8038,-0.8039,-0.8039,-0.8036,-0.8035,0,0,0,0,0,0,-0.7918,-0.7924,-0.7953,-0.7955,-0.7944,-0.7967,-0.7971,-0.7976,-0.7999,-0.8003,-0.7994,-0.7995,-0.8022,-0.8024,-0.8026,-0.802,-0.8038,-0.8039,-0.8039,-0.8036,-0.8036,-0.8035,0,0,0,0,0,0,-0.7917,-0.7921,-0.7951,-0.794,-0.7944,-0.7967,-0.7973,-0.7977,-0.7982,-0.8003,-0.8007,-0.7995,-0.8022,-0.8025,-0.8028,-0.8022,-0.8039,-0.804,-0.8037,-0.8036,-0.8036,-0.8009,0,0,0,0,0,0,-0.7916,-0.792,-0.7918,-0.794,-0.7945,-0.7953,-0.7972,-0.7977,-0.7983,-0.7986,-0.8005,-0.8008,-0.8023,-0.8027,-0.8029,-0.8023,-0.804,-0.8038,-0.8037,-0.8036,-0.801,-0.8007,-0.8005,0,0,0,0,0,-0.7915,-0.7909,-0.7918,-0.7921,-0.7943,-0.7953,-0.7956,-0.7974,-0.7982,-0.7981,-0.7994,-0.8007,-0.8023,-0.8027,-0.803,-0.8024,-0.8038,-0.8037,-0.8036,-0.8012,-0.8008,-0.8005,0,0,0,0,0,0,-0.7885,-0.7912,-0.7922,-0.7923,-0.7936,-0.7958,-0.7956,-0.7969,-0.7978,-0.798,-0.8001,-0.8005,-0.8006,-0.8016,-0.802,-0.8019,-0.8032,-0.8031,-0.8013,-0.801,-0.8007,-0.8004,-0.8041,0,0,0,0,0,-0.7879,-0.7885,-0.7908,-0.7907,-0.7913,-0.7933,-0.7938,-0.7951,-0.7964,-0.7969,-0.7983,-0.7995,-0.8002,-0.8007,-0.8015,-0.8012,-0.8017,-0.801,-0.8007,-0.8004,-0.8003,-0.8003,-0.8,-0.8031,-0.8031,-0.8032,0,0,-0.7865,-0.7881,-0.7883,-0.7901,-0.7912,-0.7918,-0.7937,-0.7942,-0.7946,-0.797,-0.7974,-0.7985,-0.7999,-0.8,-0.8001,-0.8008,-0.7996,-0.8003,-0.8001,-0.8001,-0.8001,-0.7998,-0.7996,-0.8031,-0.8031,-0.8031,0,0,-0.7843,-0.7856,-0.7857,-0.7868,-0.7885,-0.7899,-0.7899,-0.7919,-0.7928,-0.7933,-0.795,-0.7956,-0.7968,-0.7978,-0.7984,-0.7968,-0.798,-0.797,-0.7954,-0.7954,-0.7951,-0.7949,-0.7943,-0.7941,-0.7969,-0.7969,-0.7969,0,-0.7824,-0.7834,-0.7855,-0.7859,-0.7866,-0.7889,-0.789,-0.7899,-0.7917,-0.7922,-0.7929,-0.7946,-0.7957,-0.7961,-0.7957,-0.7962,-0.7962,-0.7967,-0.795,-0.7948,-0.7947,-0.7941,-0.7939,-0.7967,-0.7968,-0.7968,-0.7968,0,-0.7809,-0.7816,-0.7814,-0.7833,-0.784,-0.7842,-0.7863,-0.7867,-0.788,-0.7893,-0.7898,-0.7913,-0.7924,-0.7926,-0.7938,-0.7932,-0.7935,-0.7946,-0.7959,-0.7942,-0.7937,-0.7935,-0.7965,-0.7966,-0.7966,-0.7967,0,0,-0.7768,-0.7799,-0.7798,-0.7807,-0.7828,-0.7833,-0.7837,-0.7849,-0.7853,-0.7865,-0.7868,-0.7879,-0.789,-0.7897,-0.791,-0.791,-0.7896,-0.7921,-0.7922,-0.7916,-0.7889,-0.788,-0.7878,-0.7905,-0.7905,-0.7904,-0.7888,0,-0.7749,-0.7757,-0.7777,-0.7779,-0.7785,-0.7808,-0.7811,-0.7824,-0.7836,-0.7843,-0.7857,-0.7864,-0.7878,-0.7883,-0.7883,-0.7897,-0.7891,-0.7899,-0.7907,-0.7907,-0.7902,-0.7875,-0.7865,-0.7849,-0.7886,-0.7886,-0.7886,0,-0.7728,-0.774,-0.7743,-0.7765,-0.7768,-0.777,-0.7784,-0.779,-0.7806,-0.7815,-0.7824,-0.7839,-0.7844,-0.7857,-0.7863,-0.7868,-0.7873,-0.7881,-0.788,-0.7881,-0.7895,-0.7874,-0.7844,-0.7841,-0.7883,-0.7883,-0.7883,0,-0.7697,-0.7714,-0.7718,-0.7725,-0.775,-0.7752,-0.7762,-0.7778,-0.7785,-0.7796,-0.7801,-0.7812,-0.7819,-0.7827,-0.7845,-0.7853,-0.7849,-0.7864,-0.7857,-0.7856,-0.7854,-0.7853,-0.7823,-0.7858,-0.7858,-0.7858,-0.7858,0,-0.7673,-0.7674,-0.7704,-0.7706,-0.7708,-0.7731,-0.7731,-0.7744,-0.7758,-0.7763,-0.7784,-0.7787,-0.7812,-0.7818,-0.7832,-0.7835,-0.7838,-0.7845,-0.7849,-0.7843,-0.7842,-0.7845,-0.7847,-0.7858,-0.7858,-0.7858,-0.7858,0,-0.7638,-0.7659,-0.7664,-0.7689,-0.7695,-0.7695,-0.7716,-0.7718,-0.7733,-0.7739,-0.7742,-0.7764,-0.7773,-0.7793,-0.7807,-0.7816,-0.7816,-0.7823,-0.781,-0.7813,-0.7804,-0.7804,-0.7774,-0.7772,-0.7809,-0.7808,-0.7808,0,-0.7621,-0.7622,-0.7647,-0.7653,-0.7663,-0.7671,-0.7678,-0.7701,-0.7707,-0.7726,-0.7726,-0.7737,-0.7747,-0.7761,-0.7778,-0.7789,-0.7796,-0.7785,-0.7797,-0.7791,-0.7795,-0.7794,-0.7794,-0.7781,-0.7781,-0.778,-0.778,0,-0.7588,-0.7599,-0.7609,-0.7623,-0.7631,-0.7643,-0.7656,-0.7659,-0.7684,-0.7691,-0.7701,-0.7709,-0.7724,-0.7734,-0.7748,-0.7759,-0.7773,-0.7776,-0.7775,-0.7768,-0.7761,-0.7764,-0.7802,-0.7776,-0.7777,-0.7777,-0.7777,-0.7777,-0.7561,-0.7563,-0.7582,-0.7593,-0.7605,-0.7617,-0.7621,-0.7637,-0.7646,-0.7661,-0.7674,-0.7683,-0.7699,-0.7719,-0.7729,-0.7736,-0.7743,-0.7742,-0.7741,-0.774,-0.7737,-0.7761,-0.7739,-0.7739,-0.7739,-0.7739,-0.7739,0,-0.7529,-0.7543,-0.7552,-0.757,-0.7579,-0.7594,-0.7609,-0.7615,-0.7623,-0.7637,-0.7647,-0.7659,-0.767,-0.7689,-0.7701,-0.7703,-0.771,-0.7705,-0.7705,-0.7707,-0.7731,-0.773,-0.7699,-0.7699,-0.7699,-0.7699,-0.7699,-0.7699,-0.7513,-0.7518,-0.7531,-0.7542,-0.7556,-0.7566,-0.7573,-0.7584,-0.7596,-0.7609,-0.7618,-0.7631,-0.7647,-0.7661,-0.7671,-0.7677,-0.768,-0.7673,-0.768,-0.7701,-0.7705,-0.7709,-0.7708,-0.7673,-0.7673,-0.7656,-0.7655,-0.7655]}]]